Dew Point Data


Current

Temp 78.0 F. Dew Point 48.9 F.


Dew Point Comfort Scale

dewpoints

Date, Time Temperature Dew Point
Fri May 1 00:08:04 2020 48.0 F. 45.0 F.
Fri May 1 01:08:05 2020 46.0 F. 43.0 F.
Fri May 1 02:08:05 2020 45.0 F. 43.0 F.
Fri May 1 03:08:05 2020 43.0 F. 41.0 F.
Fri May 1 04:08:04 2020 43.0 F. 39.9 F.
Fri May 1 05:08:05 2020 42.0 F. 41.0 F.
Fri May 1 06:08:05 2020 44.0 F. 41.0 F.
Fri May 1 07:08:05 2020 45.0 F. 43.0 F.
Fri May 1 08:09:00 2020
Fri May 1 09:09:00 2020
Fri May 1 10:08:05 2020 66.0 F. 45.0 F.
Fri May 1 11:08:32 2020
Fri May 1 12:08:05 2020 71.0 F. 41.0 F.
Fri May 1 13:08:05 2020 73.0 F. 44.1 F.
Fri May 1 14:08:05 2020 73.0 F. 44.1 F.
Fri May 1 15:08:05 2020 75.0 F. 42.1 F.
Fri May 1 16:08:08 2020 75.0 F. 41.0 F.
Fri May 1 17:08:40 2020
Fri May 1 18:08:10 2020 73.0 F. 46.9 F.
Fri May 1 19:08:05 2020 70.0 F. 46.0 F.
Fri May 1 20:08:05 2020 66.0 F. 52.0 F.
Fri May 1 21:08:06 2020 67.0 F. 48.0 F.
Fri May 1 22:08:05 2020 62.0 F. 50.0 F.
Fri May 1 23:09:00 2020
Sat May 2 00:09:00 2020
Sat May 2 01:09:00 2020
Sat May 2 02:09:00 2020
Sat May 2 03:09:00 2020
Sat May 2 04:09:00 2020
Sat May 2 05:09:00 2020
Sat May 2 06:09:00 2020
Sat May 2 07:09:00 2020
Sat May 2 08:09:00 2020
Sat May 2 09:09:00 2020
Sat May 2 10:08:59 2020
Sat May 2 11:09:00 2020
Sat May 2 12:09:00 2020
Sat May 2 13:09:00 2020
Sat May 2 14:09:00 2020
Sat May 2 15:08:59 2020
Sat May 2 16:09:00 2020
Sat May 2 17:08:12 2020 83.0 F. 63.0 F.
Sat May 2 18:08:05 2020 81.0 F. 61.0 F.
Sat May 2 19:08:04 2020 79.0 F. 57.0 F.
Sat May 2 20:08:05 2020 73.0 F. 57.0 F.
Sat May 2 21:08:05 2020 73.0 F. 57.9 F.
Sat May 2 22:08:05 2020 71.0 F. 57.9 F.
Sat May 2 23:08:05 2020 71.0 F. 57.0 F.
Sun May 3 00:08:05 2020 70.0 F. 57.0 F.
Sun May 3 01:08:05 2020 68.0 F. 57.0 F.
Sun May 3 02:08:05 2020 66.0 F. 57.0 F.
Sun May 3 03:08:05 2020 66.0 F. 57.0 F.
Sun May 3 04:08:05 2020 66.0 F. 57.9 F.
Sun May 3 05:08:05 2020 66.0 F. 57.9 F.
Sun May 3 06:08:04 2020 62.0 F. 57.9 F.
Sun May 3 07:08:05 2020 64.0 F. 60.1 F.
Sun May 3 08:08:40 2020
Sun May 3 09:08:40 2020
Sun May 3 10:08:40 2020
Sun May 3 11:08:40 2020
Sun May 3 12:08:45 2020
Sun May 3 13:08:05 2020 72.0 F. 62.1 F.
Sun May 3 14:08:06 2020 73.0 F. 62.1 F.
Sun May 3 15:08:05 2020 71.0 F. 61.0 F.
Sun May 3 16:08:05 2020 70.0 F. 57.0 F.
Sun May 3 17:08:05 2020 70.0 F. 52.0 F.
Sun May 3 18:08:05 2020 68.0 F. 52.0 F.
Sun May 3 19:08:05 2020 67.0 F. 51.1 F.
Sun May 3 20:08:06 2020 63.0 F. 45.0 F.
Sun May 3 21:08:05 2020 59.0 F. 46.9 F.
Sun May 3 22:08:05 2020 55.0 F. 48.9 F.
Sun May 3 23:08:04 2020 54.0 F. 48.0 F.
Mon May 4 00:08:05 2020 52.0 F. 48.9 F.
Mon May 4 01:08:04 2020 51.0 F. 48.9 F.
Mon May 4 02:08:05 2020 50.0 F. 48.0 F.
Mon May 4 03:08:05 2020 48.0 F. 46.9 F.
Mon May 4 04:08:05 2020 48.0 F. 46.9 F.
Mon May 4 05:08:05 2020 46.0 F. 46.0 F.
Mon May 4 06:08:05 2020 46.0 F. 46.0 F.
Mon May 4 07:08:06 2020 49.0 F. 48.9 F.
Mon May 4 08:08:40 2020
Mon May 4 09:08:05 2020 60.0 F. 50.0 F.
Mon May 4 10:08:05 2020 65.0 F. 48.9 F.
Mon May 4 11:08:05 2020 68.0 F. 48.0 F.
Mon May 4 12:08:04 2020 71.0 F. 46.0 F.
Mon May 4 13:08:05 2020 72.0 F. 46.0 F.
Mon May 4 14:08:04 2020 72.0 F. 45.0 F.
Mon May 4 15:08:05 2020 71.0 F. 46.9 F.
Mon May 4 16:08:05 2020 69.0 F. 48.0 F.
Mon May 4 17:08:04 2020 62.0 F. 54.0 F.
Mon May 4 18:09:00 2020
Mon May 4 19:09:00 2020
Mon May 4 20:09:00 2020
Mon May 4 21:09:00 2020
Mon May 4 22:08:05 2020 58.0 F. 55.0 F.
Mon May 4 23:08:05 2020 58.0 F. 55.0 F.
Tue May 5 00:08:05 2020 57.0 F. 55.0 F.
Tue May 5 01:08:05 2020 58.0 F. 54.0 F.
Tue May 5 02:08:05 2020 57.0 F. 55.0 F.
Tue May 5 03:08:05 2020 57.0 F. 55.0 F.
Tue May 5 04:08:05 2020 57.0 F. 55.0 F.
Tue May 5 05:08:05 2020 56.0 F. 55.0 F.
Tue May 5 06:08:05 2020 56.0 F. 55.0 F.
Tue May 5 07:08:05 2020 56.0 F. 55.0 F.
Tue May 5 08:08:05 2020 56.0 F. 55.0 F.
Tue May 5 09:08:04 2020 56.0 F. 55.0 F.
Tue May 5 10:08:05 2020 56.0 F. 53.1 F.
Tue May 5 11:08:05 2020 56.0 F. 51.1 F.
Tue May 5 12:08:06 2020 55.0 F. 50.0 F.
Tue May 5 13:08:05 2020 55.0 F. 48.9 F.
Tue May 5 14:08:05 2020 57.0 F. 48.9 F.
Tue May 5 15:08:05 2020 62.0 F. 51.1 F.
Tue May 5 16:08:05 2020 65.0 F. 48.9 F.
Tue May 5 17:08:05 2020 66.0 F. 48.0 F.
Tue May 5 18:08:05 2020 64.0 F. 51.1 F.
Tue May 5 19:08:05 2020 64.0 F. 51.1 F.
Tue May 5 20:08:05 2020 59.0 F. 51.1 F.
Tue May 5 21:08:05 2020 53.0 F. 50.0 F.
Tue May 5 22:08:05 2020 53.0 F. 51.1 F.
Tue May 5 23:08:06 2020 53.0 F. 51.1 F.
Wed May 6 00:08:05 2020 52.0 F. 50.0 F.
Wed May 6 01:08:05 2020 51.0 F. 50.0 F.
Wed May 6 02:08:05 2020 52.0 F. 50.0 F.
Wed May 6 03:08:05 2020 51.0 F. 48.9 F.
Wed May 6 04:08:05 2020 49.0 F. 46.0 F.
Wed May 6 05:08:04 2020 47.0 F. 43.0 F.
Wed May 6 06:08:05 2020 46.0 F. 42.1 F.
Wed May 6 07:08:04 2020 46.0 F. 41.0 F.
Wed May 6 08:08:05 2020 46.0 F. 39.9 F.
Wed May 6 09:08:18 2020 50.0 F. 39.0 F.
Wed May 6 10:08:05 2020 51.0 F. 39.9 F.
Wed May 6 11:08:07 2020 50.0 F. 39.9 F.
Wed May 6 12:09:00 2020
Wed May 6 13:08:40 2020
Wed May 6 14:08:05 2020 58.0 F. 37.9 F.
Wed May 6 15:08:05 2020 58.0 F. 37.9 F.
Wed May 6 16:08:05 2020 62.0 F. 37.0 F.
Wed May 6 17:08:05 2020 62.0 F. 37.0 F.
Wed May 6 18:08:05 2020 61.0 F. 36.0 F.
Wed May 6 19:08:05 2020 60.0 F. 37.9 F.
Wed May 6 20:08:05 2020 56.0 F. 37.9 F.
Wed May 6 21:08:06 2020 52.0 F. 41.0 F.
Wed May 6 22:08:05 2020 49.0 F. 41.0 F.
Wed May 6 23:08:05 2020 46.0 F. 41.0 F.
Thu May 7 00:08:05 2020 46.0 F. 41.0 F.
Thu May 7 01:08:05 2020 45.0 F. 39.9 F.
Thu May 7 02:08:06 2020 47.0 F. 41.0 F.
Thu May 7 03:08:04 2020 45.0 F. 39.9 F.
Thu May 7 04:08:05 2020 45.0 F. 39.9 F.
Thu May 7 05:08:05 2020 44.0 F. 39.9 F.
Thu May 7 06:08:05 2020 41.0 F. 37.9 F.
Thu May 7 07:08:06 2020 46.0 F. 42.1 F.
Thu May 7 08:08:08 2020 51.0 F. 44.1 F.
Thu May 7 09:08:40 2020
Thu May 7 10:08:40 2020
Thu May 7 11:08:40 2020
Thu May 7 12:08:04 2020 67.0 F. 44.1 F.
Thu May 7 13:08:05 2020 67.0 F. 42.1 F.
Thu May 7 14:08:05 2020 68.0 F. 42.1 F.
Thu May 7 15:08:04 2020 69.0 F. 39.0 F.
Thu May 7 16:08:05 2020 70.0 F. 41.0 F.
Thu May 7 17:08:05 2020 69.0 F. 41.0 F.
Thu May 7 18:08:05 2020 67.0 F. 42.1 F.
Thu May 7 19:08:05 2020 64.0 F. 39.9 F.
Thu May 7 20:08:06 2020 62.0 F. 42.1 F.
Thu May 7 21:08:06 2020 59.0 F. 43.0 F.
Thu May 7 22:08:10 2020 59.0 F. 43.0 F.
Thu May 7 23:08:40 2020
Fri May 8 00:08:40 2020
Fri May 8 01:08:18 2020 58.0 F. 50.0 F.
Fri May 8 02:08:05 2020 57.0 F. 51.1 F.
Fri May 8 03:08:39 2020
Fri May 8 04:09:00 2020
Fri May 8 05:09:00 2020
Fri May 8 06:09:00 2020
Fri May 8 07:09:00 2020
Fri May 8 08:09:00 2020
Fri May 8 09:09:00 2020
Fri May 8 10:09:00 2020
Fri May 8 11:09:00 2020
Fri May 8 12:09:00 2020
Fri May 8 13:09:00 2020
Fri May 8 14:09:00 2020
Fri May 8 15:08:05 2020 59.0 F. 37.0 F.
Fri May 8 16:08:06 2020 58.0 F. 36.0 F.
Fri May 8 17:08:04 2020 58.0 F. 36.0 F.
Fri May 8 18:08:05 2020 55.0 F. 32.0 F.
Fri May 8 19:08:05 2020 54.0 F. 34.0 F.
Fri May 8 20:08:05 2020 52.0 F. 34.0 F.
Fri May 8 21:08:07 2020 48.0 F. 35.1 F.
Fri May 8 22:08:04 2020 48.0 F. 35.1 F.
Fri May 8 23:08:05 2020 43.0 F. 37.9 F.
Sat May 9 00:08:05 2020 43.0 F. 39.0 F.
Sat May 9 01:08:05 2020 39.0 F. 36.0 F.
Sat May 9 02:08:05 2020 38.0 F. 35.1 F.
Sat May 9 03:08:04 2020 36.0 F. 34.0 F.
Sat May 9 04:08:05 2020 35.0 F. 32.0 F.
Sat May 9 05:08:05 2020 35.0 F. 33.1 F.
Sat May 9 06:08:04 2020 33.0 F. 30.9 F.
Sat May 9 07:08:05 2020 37.0 F. 36.0 F.
Sat May 9 08:08:04 2020 46.0 F. 39.9 F.
Sat May 9 09:08:38 2020
Sat May 9 10:08:09 2020 55.0 F. 34.0 F.
Sat May 9 11:08:05 2020 57.0 F. 35.1 F.
Sat May 9 12:08:05 2020 60.0 F. 34.0 F.
Sat May 9 13:08:05 2020 61.0 F. 33.1 F.
Sat May 9 14:08:05 2020 61.0 F. 33.1 F.
Sat May 9 15:08:04 2020 63.0 F. 30.9 F.
Sat May 9 16:08:23 2020 64.0 F. 32.0 F.
Sat May 9 17:08:05 2020 63.0 F. 30.9 F.
Sat May 9 18:08:05 2020 63.0 F. 32.0 F.
Sat May 9 19:08:05 2020 60.0 F. 39.0 F.
Sat May 9 20:08:05 2020 55.0 F. 44.1 F.
Sat May 9 21:08:04 2020 54.0 F. 41.0 F.
Sat May 9 22:08:26 2020 53.0 F. 42.1 F.
Sat May 9 23:08:06 2020 51.0 F. 43.0 F.
Sun May 10 00:08:05 2020 51.0 F. 43.0 F.
Sun May 10 01:08:05 2020 50.0 F. 42.1 F.
Sun May 10 02:08:06 2020 49.0 F. 42.1 F.
Sun May 10 03:08:05 2020 53.0 F. 39.9 F.
Sun May 10 04:08:05 2020 52.0 F. 39.0 F.
Sun May 10 05:08:05 2020 52.0 F. 39.0 F.
Sun May 10 06:08:05 2020 53.0 F. 39.0 F.
Sun May 10 07:08:05 2020 54.0 F. 39.9 F.
Sun May 10 08:08:10 2020 56.0 F. 41.0 F.
Sun May 10 09:09:00 2020
Sun May 10 10:09:00 2020
Sun May 10 11:09:00 2020
Sun May 10 12:08:05 2020 63.0 F. 43.0 F.
Sun May 10 13:08:05 2020 63.0 F. 41.0 F.
Sun May 10 14:08:04 2020 63.0 F. 41.0 F.
Sun May 10 15:08:05 2020 61.0 F. 37.9 F.
Sun May 10 16:08:05 2020 60.0 F. 36.0 F.
Sun May 10 17:08:05 2020 60.0 F. 35.1 F.
Sun May 10 18:08:05 2020 58.0 F. 35.1 F.
Sun May 10 19:08:05 2020 58.0 F. 33.1 F.
Sun May 10 20:08:05 2020 56.0 F. 33.1 F.
Sun May 10 21:08:05 2020 52.0 F. 34.0 F.
Sun May 10 22:08:59 2020
Sun May 10 23:08:05 2020 49.0 F. 35.1 F.
Mon May 11 00:08:41 2020
Mon May 11 01:09:00 2020
Mon May 11 02:09:00 2020
Mon May 11 03:09:00 2020
Mon May 11 04:09:00 2020
Mon May 11 05:09:00 2020
Mon May 11 06:09:00 2020
Mon May 11 07:09:00 2020
Mon May 11 08:09:00 2020
Mon May 11 09:08:05 2020 51.0 F. 36.0 F.
Mon May 11 10:08:19 2020 53.0 F. 35.1 F.
Mon May 11 11:08:05 2020 54.0 F. 34.0 F.
Mon May 11 12:08:05 2020 56.0 F. 33.1 F.
Mon May 11 13:08:05 2020 57.0 F. 32.0 F.
Mon May 11 14:08:04 2020 61.0 F. 34.0 F.
Mon May 11 15:08:05 2020 61.0 F. 33.1 F.
Mon May 11 16:08:05 2020 61.0 F. 32.0 F.
Mon May 11 17:08:05 2020 61.0 F. 35.1 F.
Mon May 11 18:08:40 2020
Mon May 11 19:08:05 2020 58.0 F. 34.0 F.
Mon May 11 20:08:05 2020 56.0 F. 35.1 F.
Mon May 11 21:08:05 2020 52.0 F. 37.9 F.
Mon May 11 22:08:04 2020 50.0 F. 39.0 F.
Mon May 11 23:08:05 2020 49.0 F. 42.1 F.
Tue May 12 00:08:05 2020 48.0 F. 42.1 F.
Tue May 12 01:08:05 2020 48.0 F. 44.1 F.
Tue May 12 02:08:05 2020 49.0 F. 45.0 F.
Tue May 12 03:08:04 2020 49.0 F. 44.1 F.
Tue May 12 04:08:05 2020 49.0 F. 45.0 F.
Tue May 12 05:08:05 2020 50.0 F. 43.0 F.
Tue May 12 06:08:05 2020 49.0 F. 42.1 F.
Tue May 12 07:08:05 2020 50.0 F. 43.0 F.
Tue May 12 08:08:04 2020 52.0 F. 41.0 F.
Tue May 12 09:08:06 2020 53.0 F. 39.9 F.
Tue May 12 10:08:05 2020 53.0 F. 39.9 F.
Tue May 12 11:08:05 2020 56.0 F. 39.9 F.
Tue May 12 12:08:05 2020 55.0 F. 39.9 F.
Tue May 12 13:08:05 2020 55.0 F. 41.0 F.
Tue May 12 14:08:04 2020 55.0 F. 42.1 F.
Tue May 12 15:08:06 2020 54.0 F. 42.1 F.
Tue May 12 16:08:05 2020 54.0 F. 43.0 F.
Tue May 12 17:08:04 2020 53.0 F. 46.0 F.
Tue May 12 18:08:05 2020 52.0 F. 46.9 F.
Tue May 12 19:08:05 2020 51.0 F. 48.0 F.
Tue May 12 20:23:08 2020 51.0 F. 48.0 F.
Tue May 12 21:08:05 2020 51.0 F. 46.9 F.
Tue May 12 22:08:05 2020 50.0 F. 46.9 F.
Tue May 12 23:08:05 2020 50.0 F. 48.0 F.
Wed May 13 00:08:06 2020 50.0 F. 46.9 F.
Wed May 13 01:08:05 2020 50.0 F. 48.0 F.
Wed May 13 02:08:05 2020 50.0 F. 48.0 F.
Wed May 13 03:08:05 2020 50.0 F. 48.0 F.
Wed May 13 04:08:05 2020 50.0 F. 48.0 F.
Wed May 13 05:08:04 2020 50.0 F. 48.0 F.
Wed May 13 06:08:05 2020 51.0 F. 48.0 F.
Wed May 13 07:08:05 2020 51.0 F. 48.9 F.
Wed May 13 08:08:05 2020 51.0 F. 48.9 F.
Wed May 13 09:08:04 2020 52.0 F. 50.0 F.
Wed May 13 10:08:05 2020 53.0 F. 51.1 F.
Wed May 13 11:08:05 2020 54.0 F. 52.0 F.
Wed May 13 12:08:05 2020 55.0 F. 52.0 F.
Wed May 13 13:08:05 2020 55.0 F. 52.0 F.
Wed May 13 14:08:04 2020 56.0 F. 53.1 F.
Wed May 13 15:08:05 2020 57.0 F. 54.0 F.
Wed May 13 16:08:05 2020 58.0 F. 55.0 F.
Wed May 13 17:08:05 2020 58.0 F. 55.0 F.
Wed May 13 18:08:05 2020 59.0 F. 55.9 F.
Wed May 13 19:08:06 2020 60.0 F. 57.0 F.
Wed May 13 20:08:06 2020 60.0 F. 57.9 F.
Wed May 13 21:08:05 2020 60.0 F. 57.9 F.
Wed May 13 22:08:05 2020 60.0 F. 57.9 F.
Wed May 13 23:08:05 2020 60.0 F. 57.9 F.
Thu May 14 00:08:06 2020 60.0 F. 59.0 F.
Thu May 14 01:08:11 2020 60.0 F. 59.0 F.
Thu May 14 02:08:05 2020 60.0 F. 57.9 F.
Thu May 14 03:08:06 2020 59.0 F. 57.0 F.
Thu May 14 04:08:05 2020 63.0 F. 60.1 F.
Thu May 14 05:08:05 2020 64.0 F. 60.1 F.
Thu May 14 06:08:05 2020 63.0 F. 60.1 F.
Thu May 14 07:08:05 2020 64.0 F. 59.0 F.
Thu May 14 08:08:40 2020
Thu May 14 09:08:05 2020 72.0 F. 63.0 F.
Thu May 14 10:08:06 2020 74.0 F. 64.0 F.
Thu May 14 11:08:05 2020 76.0 F. 64.9 F.
Thu May 14 12:08:05 2020 79.0 F. 66.0 F.
Thu May 14 13:08:05 2020 80.0 F. 66.0 F.
Thu May 14 14:08:05 2020 81.0 F. 66.0 F.
Thu May 14 15:08:06 2020 81.0 F. 66.0 F.
Thu May 14 16:08:04 2020 79.0 F. 66.9 F.
Thu May 14 17:08:06 2020 80.0 F. 62.1 F.
Thu May 14 18:08:05 2020 78.0 F. 59.0 F.
Thu May 14 19:08:05 2020 76.0 F. 59.0 F.
Thu May 14 20:08:05 2020 74.0 F. 59.0 F.
Thu May 14 21:08:05 2020 72.0 F. 60.1 F.
Thu May 14 22:08:04 2020 72.0 F. 59.0 F.
Thu May 14 23:08:05 2020 70.0 F. 59.0 F.
Fri May 15 00:08:05 2020 69.0 F. 59.0 F.
Fri May 15 01:08:05 2020 71.0 F. 61.0 F.
Fri May 15 02:08:05 2020 71.0 F. 62.1 F.
Fri May 15 03:08:05 2020 71.0 F. 63.0 F.
Fri May 15 04:08:05 2020 70.0 F. 63.0 F.
Fri May 15 05:08:05 2020 70.0 F. 64.0 F.
Fri May 15 06:08:05 2020 70.0 F. 64.0 F.
Fri May 15 07:08:05 2020 63.0 F. 60.1 F.
Fri May 15 08:08:04 2020 63.0 F. 60.1 F.
Fri May 15 09:08:05 2020 64.0 F. 61.0 F.
Fri May 15 10:08:05 2020 64.0 F. 60.1 F.
Fri May 15 11:08:05 2020 67.0 F. 61.0 F.
Fri May 15 12:08:05 2020 67.0 F. 63.0 F.
Fri May 15 13:08:05 2020 68.0 F. 63.0 F.
Fri May 15 14:08:05 2020 68.0 F. 64.0 F.
Fri May 15 15:08:05 2020 69.0 F. 64.0 F.
Fri May 15 16:08:05 2020 69.0 F. 63.0 F.
Fri May 15 17:08:05 2020 71.0 F. 64.0 F.
Fri May 15 18:08:05 2020 71.0 F. 64.0 F.
Fri May 15 19:08:05 2020 69.0 F. 64.0 F.
Fri May 15 20:08:05 2020 67.0 F. 64.0 F.
Fri May 15 21:08:05 2020 65.0 F. 63.0 F.
Fri May 15 22:08:05 2020 64.0 F. 62.1 F.
Fri May 15 23:08:05 2020 65.0 F. 63.0 F.
Sat May 16 00:08:05 2020 65.0 F. 63.0 F.
Sat May 16 01:08:06 2020 66.0 F. 64.0 F.
Sat May 16 02:08:05 2020 65.0 F. 64.0 F.
Sat May 16 03:08:05 2020 65.0 F. 63.0 F.
Sat May 16 04:08:05 2020 64.0 F. 62.1 F.
Sat May 16 05:08:06 2020 63.0 F. 62.1 F.
Sat May 16 06:08:06 2020 63.0 F. 62.1 F.
Sat May 16 07:08:05 2020 64.0 F. 62.1 F.
Sat May 16 08:08:04 2020 66.0 F. 64.0 F.
Sat May 16 09:08:45 2020
Sat May 16 10:08:04 2020 73.0 F. 66.9 F.
Sat May 16 11:08:05 2020 73.0 F. 66.9 F.
Sat May 16 12:08:05 2020 77.0 F. 68.0 F.
Sat May 16 13:08:05 2020 80.0 F. 66.0 F.
Sat May 16 14:08:05 2020 82.0 F. 66.0 F.
Sat May 16 15:08:04 2020 81.0 F. 69.1 F.
Sat May 16 16:08:05 2020 75.0 F. 68.0 F.
Sat May 16 17:08:05 2020 77.0 F. 70.0 F.
Sat May 16 18:08:05 2020 76.0 F. 69.1 F.
Sat May 16 19:08:04 2020 75.0 F. 64.9 F.
Sat May 16 20:08:05 2020 73.0 F. 66.0 F.
Sat May 16 21:08:05 2020 72.0 F. 66.9 F.
Sat May 16 22:08:05 2020 73.0 F. 66.9 F.
Sat May 16 23:08:05 2020 70.0 F. 66.9 F.
Sun May 17 00:08:05 2020 69.0 F. 66.0 F.
Sun May 17 01:08:05 2020 69.0 F. 66.0 F.
Sun May 17 02:08:04 2020 70.0 F. 66.0 F.
Sun May 17 03:08:05 2020 69.0 F. 66.0 F.
Sun May 17 04:08:05 2020 69.0 F. 66.0 F.
Sun May 17 05:08:05 2020 69.0 F. 64.9 F.
Sun May 17 06:08:05 2020 68.0 F. 64.9 F.
Sun May 17 07:08:05 2020 68.0 F. 64.9 F.
Sun May 17 08:08:04 2020 69.0 F. 64.9 F.
Sun May 17 09:08:04 2020 70.0 F. 64.9 F.
Sun May 17 10:08:05 2020 71.0 F. 64.9 F.
Sun May 17 11:08:05 2020 75.0 F. 66.9 F.
Sun May 17 12:08:05 2020 77.0 F. 66.9 F.
Sun May 17 13:08:05 2020 78.0 F. 66.9 F.
Sun May 17 14:08:05 2020 73.0 F. 66.9 F.
Sun May 17 15:08:05 2020 73.0 F. 66.9 F.
Sun May 17 16:08:07 2020 72.0 F. 68.0 F.
Sun May 17 17:08:05 2020 76.0 F. 70.0 F.
Sun May 17 18:08:05 2020 72.0 F. 66.9 F.
Sun May 17 19:08:05 2020 68.0 F. 64.0 F.
Sun May 17 20:08:07 2020 66.0 F. 63.0 F.
Sun May 17 21:08:05 2020 66.0 F. 63.0 F.
Sun May 17 22:08:05 2020 66.0 F. 64.0 F.
Sun May 17 23:08:05 2020 66.0 F. 64.0 F.
Mon May 18 00:08:05 2020 65.0 F. 63.0 F.
Mon May 18 01:08:06 2020 63.0 F. 59.0 F.
Mon May 18 02:08:05 2020 60.0 F. 57.9 F.
Mon May 18 03:08:05 2020 59.0 F. 57.0 F.
Mon May 18 04:08:06 2020 59.0 F. 55.9 F.
Mon May 18 05:08:05 2020 57.0 F. 54.0 F.
Mon May 18 06:08:05 2020 55.0 F. 53.1 F.
Mon May 18 07:08:05 2020 57.0 F. 53.1 F.
Mon May 18 08:08:04 2020 59.0 F. 53.1 F.
Mon May 18 09:08:05 2020 61.0 F. 54.0 F.
Mon May 18 10:08:06 2020 61.0 F. 53.1 F.
Mon May 18 11:08:05 2020 62.0 F. 53.1 F.
Mon May 18 12:08:40 2020
Mon May 18 13:08:15 2020 61.0 F. 54.0 F.
Mon May 18 14:08:15 2020 61.0 F. 55.0 F.
Mon May 18 15:08:15 2020 62.0 F. 53.1 F.
Mon May 18 16:08:29 2020 64.0 F. 54.0 F.
Mon May 18 17:08:15 2020 66.0 F. 55.0 F.
Mon May 18 18:08:15 2020 65.0 F. 54.0 F.
Mon May 18 19:08:15 2020 63.0 F. 54.0 F.
Mon May 18 20:08:15 2020 61.0 F. 54.0 F.
Mon May 18 21:08:15 2020 60.0 F. 54.0 F.
Mon May 18 22:08:15 2020 60.0 F. 55.0 F.
Mon May 18 23:08:14 2020 59.0 F. 55.0 F.
Tue May 19 00:08:15 2020 59.0 F. 55.0 F.
Tue May 19 01:08:15 2020 58.0 F. 55.0 F.
Tue May 19 02:08:14 2020 58.0 F. 54.0 F.
Tue May 19 03:08:14 2020 57.0 F. 54.0 F.
Tue May 19 04:08:15 2020 57.0 F. 54.0 F.
Tue May 19 05:08:15 2020 57.0 F. 54.0 F.
Tue May 19 06:08:15 2020 57.0 F. 54.0 F.
Tue May 19 07:08:15 2020 57.0 F. 54.0 F.
Tue May 19 08:08:15 2020 59.0 F. 54.0 F.
Tue May 19 09:08:15 2020 59.0 F. 55.0 F.
Tue May 19 10:08:07 2020 60.0 F. 55.9 F.
Tue May 19 11:08:05 2020 62.0 F. 55.9 F.
Tue May 19 12:08:05 2020 63.0 F. 55.9 F.
Tue May 19 13:08:06 2020 63.0 F. 57.0 F.
Tue May 19 14:08:05 2020 64.0 F. 55.9 F.
Tue May 19 15:08:06 2020 63.0 F. 55.9 F.
Tue May 19 16:08:05 2020 64.0 F. 57.0 F.
Tue May 19 17:08:05 2020 61.0 F. 57.9 F.
Tue May 19 18:08:05 2020 62.0 F. 57.0 F.
Tue May 19 19:08:06 2020 61.0 F. 57.0 F.
Tue May 19 20:08:05 2020 61.0 F. 57.0 F.
Tue May 19 21:08:05 2020 61.0 F. 57.0 F.
Tue May 19 22:08:05 2020 60.0 F. 57.9 F.
Tue May 19 23:08:05 2020 60.0 F. 57.9 F.
Wed May 20 00:08:05 2020 60.0 F. 57.9 F.
Wed May 20 01:08:05 2020 60.0 F. 59.0 F.
Wed May 20 02:08:05 2020 60.0 F. 57.9 F.
Wed May 20 03:08:06 2020 60.0 F. 57.9 F.
Wed May 20 04:08:05 2020 59.0 F. 57.0 F.
Wed May 20 05:08:05 2020 60.0 F. 57.9 F.
Wed May 20 06:08:05 2020 60.0 F. 57.0 F.
Wed May 20 07:08:04 2020 60.0 F. 57.9 F.
Wed May 20 08:08:05 2020 60.0 F. 57.9 F.
Wed May 20 09:08:05 2020 61.0 F. 59.0 F.
Wed May 20 10:08:05 2020 64.0 F. 60.1 F.
Wed May 20 11:08:05 2020 66.0 F. 60.1 F.
Wed May 20 12:08:05 2020 67.0 F. 60.1 F.
Wed May 20 13:08:05 2020 70.0 F. 60.1 F.
Wed May 20 14:08:05 2020 67.0 F. 59.0 F.
Wed May 20 15:08:05 2020 68.0 F. 57.9 F.
Wed May 20 16:08:05 2020 67.0 F. 59.0 F.
Wed May 20 17:08:05 2020 65.0 F. 59.0 F.
Wed May 20 18:08:05 2020 63.0 F. 57.9 F.
Wed May 20 19:08:05 2020 63.0 F. 55.9 F.
Wed May 20 20:08:05 2020 61.0 F. 55.0 F.
Wed May 20 21:08:05 2020 61.0 F. 55.0 F.
Wed May 20 22:08:05 2020 60.0 F. 55.0 F.
Wed May 20 23:08:04 2020 60.0 F. 55.0 F.
Thu May 21 00:08:05 2020 59.0 F. 54.0 F.
Thu May 21 01:08:05 2020 59.0 F. 54.0 F.
Thu May 21 02:08:05 2020 59.0 F. 53.1 F.
Thu May 21 03:08:05 2020 58.0 F. 53.1 F.
Thu May 21 04:08:05 2020 58.0 F. 53.1 F.
Thu May 21 05:08:05 2020 58.0 F. 53.1 F.
Thu May 21 06:08:05 2020 58.0 F. 53.1 F.
Thu May 21 07:08:05 2020 58.0 F. 53.1 F.
Thu May 21 08:08:05 2020 58.0 F. 53.1 F.
Thu May 21 09:08:05 2020 60.0 F. 54.0 F.
Thu May 21 10:08:06 2020 60.0 F. 54.0 F.
Thu May 21 11:08:05 2020 62.0 F. 55.0 F.
Thu May 21 12:08:05 2020 66.0 F. 57.0 F.
Thu May 21 13:08:05 2020 65.0 F. 55.9 F.
Thu May 21 14:08:05 2020 66.0 F. 57.9 F.
Thu May 21 15:08:05 2020 69.0 F. 57.9 F.
Thu May 21 16:08:05 2020 69.0 F. 57.9 F.
Thu May 21 17:08:05 2020 70.0 F. 57.9 F.
Thu May 21 18:08:05 2020 71.0 F. 57.9 F.
Thu May 21 19:08:05 2020 69.0 F. 57.9 F.
Thu May 21 20:08:32 2020
Thu May 21 21:08:05 2020 66.0 F. 60.1 F.
Thu May 21 22:08:05 2020 66.0 F. 60.1 F.
Thu May 21 23:08:04 2020 65.0 F. 60.1 F.
Fri May 22 00:08:05 2020 64.0 F. 61.0 F.
Fri May 22 01:08:05 2020 63.0 F. 60.1 F.
Fri May 22 02:08:05 2020 61.0 F. 59.0 F.
Fri May 22 03:08:05 2020 59.0 F. 57.0 F.
Fri May 22 04:08:06 2020 58.0 F. 57.0 F.
Fri May 22 06:08:04 2020 60.0 F. 57.9 F.
Fri May 22 07:08:05 2020 61.0 F. 59.0 F.
Fri May 22 08:08:05 2020 61.0 F. 59.0 F.
Fri May 22 09:08:05 2020 63.0 F. 60.1 F.
Fri May 22 10:08:06 2020 72.0 F. 62.1 F.
Fri May 22 11:08:04 2020 75.0 F. 63.0 F.
Fri May 22 12:08:05 2020 77.0 F. 63.0 F.
Fri May 22 13:08:05 2020 77.0 F. 62.1 F.
Fri May 22 14:08:05 2020 79.0 F. 62.1 F.
Fri May 22 15:09:06 2020 78.0 F. 62.1 F.
Fri May 22 16:08:05 2020 77.0 F. 63.0 F.
Fri May 22 17:08:05 2020 77.0 F. 63.0 F.
Fri May 22 18:08:05 2020 77.0 F. 64.9 F.
Fri May 22 19:08:05 2020 76.0 F. 64.9 F.
Fri May 22 20:08:05 2020 72.0 F. 66.0 F.
Fri May 22 21:08:05 2020 69.0 F. 64.9 F.
Fri May 22 22:08:04 2020 66.0 F. 64.0 F.
Fri May 22 23:08:05 2020 64.0 F. 63.0 F.
Sat May 23 00:08:05 2020 63.0 F. 62.1 F.
Sat May 23 01:08:05 2020 63.0 F. 62.1 F.
Sat May 23 02:08:05 2020 65.0 F. 62.1 F.
Sat May 23 03:08:06 2020 65.0 F. 62.1 F.
Sat May 23 04:08:05 2020 63.0 F. 61.0 F.
Sat May 23 05:08:05 2020 64.0 F. 61.0 F.
Sat May 23 06:08:05 2020 62.0 F. 60.1 F.
Sat May 23 07:08:05 2020 66.0 F. 62.1 F.
Sat May 23 08:08:05 2020 66.0 F. 62.1 F.
Sat May 23 09:08:05 2020 74.0 F. 64.9 F.
Sat May 23 10:08:05 2020 74.0 F. 64.9 F.
Sat May 23 11:08:04 2020 79.0 F. 64.9 F.
Sat May 23 12:08:05 2020 80.0 F. 64.0 F.
Sat May 23 13:08:04 2020 80.0 F. 64.0 F.
Sat May 23 14:08:05 2020 79.0 F. 66.0 F.
Sat May 23 15:08:05 2020 84.0 F. 62.1 F.
Sat May 23 16:08:05 2020 85.0 F. 64.9 F.
Sat May 23 17:08:04 2020 85.0 F. 64.0 F.
Sat May 23 18:08:05 2020 82.0 F. 66.0 F.
Sat May 23 19:08:05 2020 79.0 F. 64.9 F.
Sat May 23 20:08:06 2020 76.0 F. 64.9 F.
Sat May 23 21:08:07 2020 76.0 F. 64.9 F.
Sat May 23 22:08:05 2020 73.0 F. 64.0 F.
Sat May 23 23:08:05 2020 68.0 F. 64.0 F.
Sun May 24 00:08:04 2020 67.0 F. 64.0 F.
Sun May 24 01:08:04 2020 66.0 F. 63.0 F.
Sun May 24 02:08:40 2020
Sun May 24 03:08:40 2020
Sun May 24 04:08:40 2020
Sun May 24 05:08:40 2020
Sun May 24 06:08:40 2020
Sun May 24 07:08:40 2020
Sun May 24 08:08:40 2020
Sun May 24 09:08:05 2020 77.0 F. 68.0 F.
Sun May 24 10:08:05 2020 78.0 F. 68.0 F.
Sun May 24 11:08:05 2020 78.0 F. 68.0 F.
Sun May 24 12:08:05 2020 79.0 F. 68.0 F.
Sun May 24 13:08:05 2020 84.0 F. 69.1 F.
Sun May 24 14:08:05 2020 86.0 F. 69.1 F.
Sun May 24 15:08:05 2020 85.0 F. 66.0 F.
Sun May 24 16:08:05 2020 86.0 F. 69.1 F.
Sun May 24 17:08:05 2020 87.0 F. 68.0 F.
Sun May 24 18:08:04 2020 86.0 F. 68.0 F.
Sun May 24 19:08:05 2020 83.0 F. 68.0 F.
Sun May 24 20:08:13 2020 76.0 F. 63.0 F.
Sun May 24 21:08:04 2020 68.0 F. 66.0 F.
Sun May 24 22:08:06 2020 71.0 F. 63.0 F.
Sun May 24 23:08:05 2020 67.0 F. 64.9 F.
Mon May 25 00:08:18 2020 68.0 F. 64.9 F.
Mon May 25 01:08:05 2020 67.0 F. 64.9 F.
Mon May 25 02:08:05 2020 66.0 F. 64.0 F.
Mon May 25 03:08:05 2020 66.0 F. 63.0 F.
Mon May 25 04:08:05 2020 66.0 F. 63.0 F.
Mon May 25 05:08:05 2020 65.0 F. 63.0 F.
Mon May 25 06:08:05 2020 64.0 F. 63.0 F.
Mon May 25 07:08:04 2020 64.0 F. 63.0 F.
Mon May 25 08:08:04 2020 70.0 F. 64.9 F.
Mon May 25 09:08:05 2020 75.0 F. 66.9 F.
Mon May 25 10:08:45 2020
Mon May 25 11:08:05 2020 83.0 F. 71.1 F.
Mon May 25 12:08:05 2020 85.0 F. 71.1 F.
Mon May 25 13:08:05 2020 85.0 F. 71.1 F.
Mon May 25 14:08:05 2020 88.0 F. 69.1 F.
Mon May 25 15:08:05 2020 89.0 F. 66.9 F.
Mon May 25 16:08:40 2020
Mon May 25 17:08:40 2020
Mon May 25 18:08:40 2020
Mon May 25 19:08:10 2020 82.0 F. 72.0 F.
Mon May 25 20:08:05 2020 76.0 F. 63.0 F.
Mon May 25 21:08:06 2020 74.0 F. 68.0 F.
Mon May 25 22:08:05 2020 74.0 F. 66.9 F.
Mon May 25 23:08:07 2020 74.0 F. 66.0 F.
Tue May 26 00:08:04 2020 73.0 F. 64.9 F.
Tue May 26 01:08:05 2020 71.0 F. 64.9 F.
Tue May 26 02:08:05 2020 71.0 F. 64.0 F.
Tue May 26 03:08:05 2020 70.0 F. 64.0 F.
Tue May 26 04:08:05 2020 69.0 F. 64.9 F.
Tue May 26 05:08:05 2020 68.0 F. 64.9 F.
Tue May 26 06:08:05 2020 70.0 F. 64.9 F.
Tue May 26 07:08:05 2020 70.0 F. 64.9 F.
Tue May 26 08:08:04 2020 75.0 F. 66.0 F.
Tue May 26 09:08:05 2020 78.0 F. 66.9 F.
Tue May 26 10:08:05 2020 81.0 F. 68.0 F.
Tue May 26 11:08:05 2020 81.0 F. 66.9 F.
Tue May 26 12:08:04 2020 80.0 F. 66.0 F.
Tue May 26 13:08:04 2020 79.0 F. 66.0 F.
Tue May 26 14:08:05 2020 81.0 F. 66.9 F.
Tue May 26 15:08:06 2020 80.0 F. 66.0 F.
Tue May 26 16:08:05 2020 80.0 F. 66.0 F.
Tue May 26 17:08:05 2020 77.0 F. 68.0 F.
Tue May 26 18:08:07 2020 78.0 F. 64.9 F.
Tue May 26 19:08:04 2020 77.0 F. 66.0 F.
Tue May 26 20:08:05 2020 72.0 F. 66.9 F.
Tue May 26 21:08:05 2020 71.0 F. 66.9 F.
Tue May 26 22:08:24 2020 70.0 F. 66.9 F.
Tue May 26 23:08:05 2020 70.0 F. 66.9 F.
Wed May 27 00:08:05 2020 70.0 F. 66.9 F.
Wed May 27 01:08:05 2020 70.0 F. 66.0 F.
Wed May 27 02:08:05 2020 69.0 F. 66.0 F.
Wed May 27 03:08:05 2020 69.0 F. 66.0 F.
Wed May 27 04:08:05 2020 69.0 F. 66.0 F.
Wed May 27 05:08:05 2020 68.0 F. 66.0 F.
Wed May 27 06:08:05 2020 68.0 F. 66.0 F.
Wed May 27 07:08:05 2020 69.0 F. 66.0 F.
Wed May 27 08:08:05 2020 69.0 F. 66.0 F.
Wed May 27 09:08:05 2020 69.0 F. 66.0 F.
Wed May 27 10:08:05 2020 69.0 F. 66.0 F.
Wed May 27 11:08:05 2020 70.0 F. 66.9 F.
Wed May 27 12:08:05 2020 72.0 F. 68.0 F.
Wed May 27 13:08:05 2020 73.0 F. 68.0 F.
Wed May 27 14:08:05 2020 75.0 F. 68.0 F.
Wed May 27 15:08:05 2020 77.0 F. 68.0 F.
Wed May 27 16:08:05 2020 79.0 F. 66.9 F.
Wed May 27 17:08:05 2020 78.0 F. 66.9 F.
Wed May 27 18:08:05 2020 78.0 F. 66.9 F.
Wed May 27 19:08:05 2020 77.0 F. 68.0 F.
Wed May 27 20:08:05 2020 74.0 F. 66.9 F.
Wed May 27 21:08:05 2020 71.0 F. 66.0 F.
Wed May 27 22:08:04 2020 71.0 F. 64.9 F.
Wed May 27 23:08:05 2020 70.0 F. 64.9 F.
Thu May 28 00:08:04 2020 70.0 F. 64.9 F.
Thu May 28 01:08:05 2020 70.0 F. 66.0 F.
Thu May 28 02:08:04 2020 70.0 F. 66.0 F.
Thu May 28 03:08:05 2020 69.0 F. 66.0 F.
Thu May 28 04:08:05 2020 69.0 F. 66.0 F.
Thu May 28 05:08:06 2020 68.0 F. 64.9 F.
Thu May 28 06:08:05 2020 67.0 F. 64.9 F.
Thu May 28 07:08:05 2020 67.0 F. 64.9 F.
Thu May 28 08:08:04 2020 66.0 F. 60.1 F.
Thu May 28 09:08:07 2020 68.0 F. 62.1 F.
Thu May 28 10:08:05 2020 75.0 F. 63.0 F.
Thu May 28 11:08:07 2020 76.0 F. 64.0 F.
Thu May 28 12:08:06 2020 77.0 F. 64.0 F.
Thu May 28 13:08:05 2020 79.0 F. 66.0 F.
Thu May 28 14:08:05 2020 79.0 F. 64.9 F.
Thu May 28 15:08:04 2020 81.0 F. 64.0 F.
Thu May 28 16:08:04 2020 81.0 F. 63.0 F.
Thu May 28 17:08:06 2020 80.0 F. 64.0 F.
Thu May 28 18:08:06 2020 77.0 F. 63.0 F.
Thu May 28 19:08:05 2020 78.0 F. 63.0 F.
Thu May 28 20:08:05 2020 73.0 F. 64.0 F.
Thu May 28 21:08:05 2020 71.0 F. 63.0 F.
Thu May 28 22:08:04 2020 71.0 F. 62.1 F.
Thu May 28 23:08:05 2020 69.0 F. 61.0 F.
Fri May 29 00:08:04 2020 65.0 F. 61.0 F.
Fri May 29 01:08:05 2020 65.0 F. 61.0 F.
Fri May 29 02:08:05 2020 65.0 F. 62.1 F.
Fri May 29 03:08:05 2020 65.0 F. 62.1 F.
Fri May 29 04:08:05 2020 64.0 F. 62.1 F.
Fri May 29 05:08:05 2020 64.0 F. 62.1 F.
Fri May 29 06:08:05 2020 64.0 F. 62.1 F.
Fri May 29 07:08:05 2020 66.0 F. 63.0 F.
Fri May 29 08:08:05 2020 67.0 F. 63.0 F.
Fri May 29 09:08:05 2020 68.0 F. 63.0 F.
Fri May 29 10:08:04 2020 70.0 F. 63.0 F.
Fri May 29 11:08:05 2020 64.0 F. 57.9 F.
Fri May 29 12:08:04 2020 64.0 F. 57.9 F.
Fri May 29 13:08:05 2020 69.0 F. 63.0 F.
Fri May 29 14:08:05 2020 78.0 F. 59.0 F.
Fri May 29 15:08:06 2020 79.0 F. 54.0 F.
Fri May 29 16:08:05 2020 79.0 F. 54.0 F.
Fri May 29 17:08:04 2020 79.0 F. 52.0 F.
Fri May 29 18:08:05 2020 78.0 F. 53.1 F.
Fri May 29 19:08:05 2020 75.0 F. 54.0 F.
Fri May 29 20:08:05 2020 72.0 F. 54.0 F.
Fri May 29 21:08:05 2020 68.0 F. 55.0 F.
Fri May 29 22:08:05 2020 64.0 F. 57.0 F.
Fri May 29 23:08:05 2020 63.0 F. 55.0 F.
Sat May 30 00:08:06 2020 60.0 F. 54.0 F.
Sat May 30 01:08:05 2020 61.0 F. 53.1 F.
Sat May 30 02:08:04 2020 57.0 F. 53.1 F.
Sat May 30 03:08:05 2020 57.0 F. 54.0 F.
Sat May 30 04:08:05 2020 56.0 F. 54.0 F.
Sat May 30 05:08:05 2020 56.0 F. 53.1 F.
Sat May 30 06:08:05 2020 56.0 F. 53.1 F.
Sat May 30 07:08:05 2020 59.0 F. 53.1 F.
Sat May 30 08:08:04 2020 62.0 F. 54.0 F.
Sat May 30 09:08:05 2020 66.0 F. 51.1 F.
Sat May 30 10:08:05 2020 66.0 F. 51.1 F.
Sat May 30 11:08:05 2020 70.0 F. 51.1 F.
Sat May 30 12:08:05 2020 72.0 F. 51.1 F.
Sat May 30 13:08:05 2020 72.0 F. 51.1 F.
Sat May 30 14:08:05 2020 73.0 F. 52.0 F.
Sat May 30 15:08:05 2020 75.0 F. 52.0 F.
Sat May 30 16:08:04 2020 75.0 F. 53.1 F.
Sat May 30 17:08:05 2020 75.0 F. 53.1 F.
Sat May 30 18:08:04 2020 75.0 F. 51.1 F.
Sat May 30 19:08:05 2020 74.0 F. 52.0 F.
Sat May 30 20:08:05 2020 70.0 F. 53.1 F.
Sat May 30 21:08:07 2020 66.0 F. 53.1 F.
Sat May 30 22:08:40 2020
Sat May 30 23:08:05 2020 61.0 F. 55.0 F.
Sun May 31 00:08:05 2020 60.0 F. 55.0 F.
Sun May 31 01:08:05 2020 59.0 F. 55.9 F.
Sun May 31 02:08:05 2020 58.0 F. 55.0 F.
Sun May 31 03:08:05 2020 58.0 F. 55.0 F.
Sun May 31 04:08:05 2020 57.0 F. 54.0 F.
Sun May 31 05:08:05 2020 56.0 F. 53.1 F.
Sun May 31 06:08:06 2020 57.0 F. 53.1 F.
Sun May 31 07:08:06 2020 60.0 F. 55.0 F.
Sun May 31 08:08:05 2020 60.0 F. 55.0 F.
Sun May 31 09:08:05 2020 63.0 F. 55.9 F.
Sun May 31 10:08:05 2020 68.0 F. 55.9 F.
Sun May 31 11:08:05 2020 72.0 F. 55.0 F.
Sun May 31 12:09:00 2020
Sun May 31 13:09:00 2020
Sun May 31 14:08:40 2020
Sun May 31 15:08:05 2020 79.0 F. 52.0 F.
Sun May 31 16:08:05 2020 80.0 F. 53.1 F.
Sun May 31 17:08:05 2020 80.0 F. 53.1 F.
Sun May 31 18:08:06 2020 79.0 F. 53.1 F.
Sun May 31 19:08:04 2020 77.0 F. 53.1 F.
Sun May 31 20:08:06 2020 73.0 F. 54.0 F.
Sun May 31 21:08:05 2020 68.0 F. 54.0 F.
Sun May 31 22:08:05 2020 68.0 F. 54.0 F.
Sun May 31 23:08:04 2020 62.0 F. 55.0 F.
Mon Jun 1 00:08:05 2020 61.0 F. 54.0 F.
Mon Jun 1 01:08:04 2020 61.0 F. 54.0 F.
Mon Jun 1 02:08:05 2020 58.0 F. 54.0 F.
Mon Jun 1 03:08:04 2020 57.0 F. 54.0 F.
Mon Jun 1 04:08:04 2020 56.0 F. 53.1 F.
Mon Jun 1 05:08:54 2020
Mon Jun 1 06:08:40 2020
Mon Jun 1 07:08:07 2020 55.0 F. 52.0 F.
Mon Jun 1 08:08:05 2020 64.0 F. 50.0 F.
Mon Jun 1 09:08:04 2020 69.0 F. 48.0 F.
Mon Jun 1 10:08:04 2020 73.0 F. 46.9 F.
Mon Jun 1 11:08:07 2020 75.0 F. 48.9 F.
Mon Jun 1 12:08:05 2020 75.0 F. 48.9 F.
Mon Jun 1 13:08:05 2020 78.0 F. 48.9 F.